Weather in Bogdashkino

Russia / Ulyanovsk Oblast     54°36′49″N   47°40′32″E
temp.,
°C
wind,
m/s
gust,
m/s
humid.,
%
clouds,
%
prec.,
mm/h
press.,
hPa
HPBL,
m
23 april, fri
fri2301:00+7ssw227973 0.0 102411
04:00+6ssw22845 0.0 102410
07:00+6sse11825 0.0 102521
10:00+11sse44675 0.0 1025517
13:00+14se34534 0.0 10231445
16:00+14se545088 0.2 10221463
19:00+12se4764100 0.0 1021445
22:00+9ese3574100 0.0 1020112
24 april, sat
sat2401:00+8e2378100 0.0 101860
04:00+7ene2281100 0.0 101629
07:00+7e3683100 0.0 1015222
10:00+9e3471100 0.0 1013449
13:00+11e4361100 0.0 10111213
16:00+10ese4471100 0.1 1010729
19:00+9ese577786 0.0 1008519
22:00+7ese599285 0.4 1006249
25 april, sun
sun2501:00+9ssw61089100 0.5 1003633
04:00+5wsw71278100 3.1 10051173
07:00+5wsw711745 0.0 1005950
10:00+6w101474100 0.1 10061307
13:00+8w10145825 0.1 10091687
16:00+10w10143689 0.1 10102729
19:00+7wsw9145034 0.1 10121701
22:00+5wsw714615 0.1 1014921
26 april, mon
mon2601:00+4sw715655 0.0 1015631
04:00+3sw715690 0.0 1016496
07:00+4sw715661 0.0 1016528
10:00+9sw9144514 0.0 10151616
13:00+10wsw91348100 0.0 10152038
16:00+10wsw6956100 0.0 10151440
19:00+9w356074 0.0 1014518
22:00+7sse226999 0.0 101315
27 april, tue
tue2701:00+5se487898 0.0 1011148
04:00+4s4971100 0.0 1009176
07:00+5s6136497 0.0 1008477
10:00+3w61088100 0.1 1009665
13:00+8w785481 0.0 10091687
16:00+9wsw684497 0.1 10081995
19:00+7wsw5759100 0.5 10081090
22:00+5wsw4868100 1.4 1009364